Simultaneous Nadir Overpasses (SNOs) Predictions

Prediction of SNOs between LANDSAT-8 and METOP-B Satellite Orbit:

Table of predicted SNOs for the next 14.0 days since TLE Epoch: 11/19/2022
Index Date (LANDSAT-8) Time (LANDSAT-8) Lat,Lon (LANDSAT-8) SZA (LANDSAT-8 ) Date (METOP-B) Time (METOP-B) Lat,Lon (METOP-B) SZA (METOP-B ) Distance(km) Time Diff (sec)
1 11/19/2022 22:40:27 -81.12, 59.76 76.96 11/19/2022 22:40:02 -81.12, 59.68 76.99 1.34 25
2 11/19/2022 23:29:53 81.13,-132.47 103.07 11/19/2022 23:30:41 81.14,-132.40 103.10 1.55 48
3 11/22/2022 18:14:42 -81.13, 126.35 76.34 11/22/2022 18:14:22 -81.13, 126.40 76.35 1.06 20
4 11/22/2022 19:04:08 81.14, -65.91 103.68 11/22/2022 19:05:02 81.13, -66.06 103.69 2.64 54
5 11/25/2022 13:48:59 -81.11,-167.49 75.84 11/25/2022 13:48:45 -81.11,-167.67 75.86 3.13 14
6 11/25/2022 14:38:24 81.14, 0.59 104.24 11/25/2022 14:39:23 81.14, 0.61 104.27 0.29 59
7 11/28/2022 09:23:15 -81.11,-101.03 75.34 11/28/2022 09:23:06 -81.12,-101.05 75.34 0.38 9
8 11/28/2022 10:12:40 81.14, 67.02 104.73 11/28/2022 10:13:45 81.14, 66.85 104.74 3.02 65
9 12/01/2022 04:57:29 -81.13, -34.28 74.86 12/01/2022 04:57:25 -81.13, -34.09 74.84 3.23 4



Historial Predications of SNOs between LANDSAT-8 and METOP-B
